BEIDOU 13 (C12)

Last updated on Oct. 29, 2020, 5:53 a.m. UTC

1 38251U 12018B   20302.58049462 -.00000109  00000-0  00000+0 0  9996
2 38251  56.6743  12.6361 0014966 241.3346 156.9228  1.86232512 57971
UTC
Height (km)
Latitude
Longitude
Inclination
Orbital Period
UTC large
Height (km)
Speed (km/s)
/
Latitude / Longitude
Inclination (degrees)
Orbital Period (minutes)
Azimuth
Elevation
Range (km)
Doppler Factor
iOS Compass Heading
iOS Angle

Next 30 passes for location: Hong Kong

Rise time Rise Azimuth (degrees) Set time Set Azimuth (degrees) Duration Max altitude (degrees)

No matching passes for this satellites